Regional Weather Roundup
Issued by NWS Sioux Falls, SD

Home | Current Version | Previous Version | Text Only | Print | Product List | Glossary On
Versions: 1 2 3 4 5 6 7 8 9 10 11 12 13 14 15 16 17 18 19 20 21 22 23 24 25 26 27 28 29 30 31 32 33 34 35 36 37 38 39 40 41 42 43 44 45 46 47 48 49 50
000
ASUS43 KFSD 230502
RWRFSD

WEATHER ROUNDUP FOR SE SOUTH DAKOTA/SW MINNESOTA/NW IOWA
NATIONAL WEATHER SERVICE SIOUX FALLS SD
1200 AM CDT WED JUL 23 2014

NOTE: "FAIR" INDICATES FEW OR NO CLOUDS BELOW 12,000 FEET WITH NO
SIGNIFICANT WEATHER AND OR OBSTRUCTIONS TO VISIBILITY.


SDZ038>040-050-052>070-230600-
SOUTHEAST SOUTH DAKOTA

CITY           SKY/WX    TMP DP  RH WIND       PRES   REMARKS
CHAMBERLAIN    CLOUDY    71  58  65 NE5       30.28R
HURON          MOCLDY    64  59  83 NW3       30.26R
MADISON        FAIR      59  59 100 N7        30.27R
MITCHELL       MOCLDY    67  62  84 N3        30.26R
SIOUX FALLS    PTCLDY    63  58  83 N5        30.24R
WINNER         FAIR      72  59  63 NE5       30.29R
YANKTON        CLEAR     66  61  82 N6        30.23R
$$

MNZ071-072-080-081-089-090-097-098-230600-
SOUTHWEST MINNESOTA

CITY           SKY/WX    TMP DP  RH WIND       PRES   REMARKS
FAIRMONT       CLEAR     64  54  68 N7        30.18S
JACKSON        CLEAR     61  54  77 NW6       30.22R
LUVERNE        PTCLDY    68  55  64 N6        30.24S
MARSHALL       PTCLDY    61  55  82 NW8       30.23R
MONTEVIDEO     PTCLDY    63  55  77 N5        30.24R
PIPESTONE      PTCLDY    64  55  72 N5        30.25S
REDWOOD FALLS  CLEAR     67  57  70 NW8       30.20R
TRACY          PTCLDY    64  58  82 NW7       30.24R
WINDOM         CLEAR     64  57  77 NW9       30.22R
WORTHINGTON    CLEAR     61  55  82 NW7       30.24R
$$

IAZ001>003-012>014-020>022-031-032-NEZ013-014-SDZ071-230600-
NORTHWEST IOWA

CITY           SKY/WX    TMP DP  RH WIND       PRES   REMARKS
CHEROKEE       CLEAR     67  60  79 N8        30.20R
DENISON        CLEAR     70  61  73 N8        30.16R
ESTHERVILLE    CLEAR     63  56  78 N9        30.19R
LE MARS        CLEAR     64  61  88 N5        30.21R
ORANGE CITY    CLEAR     70  55  60 N8        30.22R
SHELDON        CLEAR     61  57  88 N6        30.21R
SIOUX CITY     CLEAR     73  59  61 N9        30.20R
SPENCER        CLEAR     63  57  81 N9        30.21R
STORM LAKE     CLEAR     66  61  82 N7        30.20R
$$

ABBREVIATIONS USED IN REMARKS
   TC - TEMPERATURE IN CELSIUS
  WCI - WIND CHILL INDEX
   HX - HEAT INDEX
  VSB - VISIBILITY




USA.gov is the U.S. government's official web portal to all federal, state and local government web resources and services.